[[{"header":{"parameterUnit":"m.s-1","parameterCategory":1,"la1":30.2991,"la2":30.254,"lo1":-89.0895,"lo2":-89.0444,"dy":0.0017,"dx":0.0017,"nx":28,"ny":28,"refTime":"2024-03-13T21:00:00:Z","depth":0,"parameterNumber":2,"parameterNumberName":"U-component_of_WINDS"},"data":[0,0,0,0,0,0,0,0,0,0,0,0,0,0,0,0,0,0,0,0,0,0,0,0,0,0,0,0,0,0,0,0,0,0,0,0,0,0,0,0,0,0,0,0,0,0,0,0,0,0,0,0,0,0,0,0,0,0,-4.9432,-4.9433,0,-4.9536,-4.9537,-4.9539,-4.9508,-4.9506,-4.9504,-4.9502,-4.9609,-4.9613,-4.9618,0,0,0,0,0,0,0,0,0,0,0,0,0,-4.9207,-4.9211,-4.9432,-4.9433,-4.9434,-4.9536,-4.9537,-4.9539,-4.9508,-4.9506,-4.9503,-4.9501,-4.9607,-4.9613,-4.9619,0,0,0,0,0,0,0,0,0,0,0,0,0,-4.9307,-4.9212,-4.9431,-4.9431,-4.9432,-4.9536,-4.9537,-4.9539,-4.9509,-4.9506,-4.9502,-4.9499,-4.9605,-4.9612,-4.9619,-4.9729,0,0,-4.9642,-4.9645,0,0,0,0,0,0,0,0,-4.9301,-4.9315,-4.943,-4.9431,-4.9433,-4.9506,-4.9497,-4.9603,-4.951,-4.948,-4.9501,-4.9498,-4.9577,-4.9586,-4.9613,-4.9734,-4.9739,-4.9642,-4.9647,-4.965,-4.9652,0,0,0,0,0,0,0,-4.9295,-4.9311,-4.9473,-4.9432,-4.9433,-4.9426,-4.9437,-4.9517,-4.9545,-4.9482,-4.948,-4.9493,-4.9577,-4.9606,-4.9615,-4.974,-4.9642,-4.9649,-4.9653,-4.9656,-4.9958,-4.9961,0,0,0,0,0,0,-4.9287,-4.9305,-4.947,-4.9476,-4.9358,-4.9433,-4.9445,-4.9486,-4.9544,-4.955,-4.9496,-4.9491,-4.9595,-4.9607,-4.9619,-4.9751,-4.965,-4.9657,-4.9661,-4.9954,-4.9959,-4.9963,0,0,0,0,0,0,-4.9282,-4.9301,-4.9465,-4.939,-4.9411,-4.944,-4.9486,-4.9489,-4.9518,-4.9555,-4.9559,-4.952,-4.9593,-4.9609,-4.9702,-4.9754,-4.966,-4.9667,-4.995,-4.9956,-4.9961,-5.0016,0,0,0,0,0,0,-4.9275,-4.93,-4.9341,-4.9391,-4.9415,-4.9546,-4.9489,-4.9494,-4.9531,-4.9526,-4.9579,-4.9584,-4.9592,-4.9691,-4.9709,-4.9762,-4.9672,-4.9945,-4.9952,-4.9959,-5.0009,-5.0022,-5.0034,0,0,0,0,0,-4.9268,-4.9353,-4.9344,-4.9364,-4.9467,-4.9549,-4.9563,-4.957,-4.9535,-4.9577,-4.9601,-4.9583,-4.9747,-4.9701,-4.9721,-4.9777,-4.9942,-4.995,-4.9958,-5.0004,-5.002,-5.0033,0,0,0,0,0,0,-4.9307,-4.9359,-4.935,-4.9453,-4.9497,-4.9544,-4.9597,-4.9586,-4.9641,-4.9634,-4.9641,-4.9653,-4.9748,-4.9773,-4.9721,-4.9887,-4.9839,-4.9852,-4.9867,-4.9882,-4.9894,-4.9885,-4.9678,0,0,0,0,0,-4.9328,-4.9391,-4.9433,-4.952,-4.9543,-4.9567,-4.9603,-4.9605,-4.965,-4.9668,-4.9699,-4.9744,-4.9806,-4.9846,-4.9905,-5.0014,-5.0025,-5.0063,-5.0075,-5.0085,-5.0094,-5.0154,-5.0171,-4.9989,-4.9989,-4.9989,0,0,-4.9372,-4.9408,-4.9447,-4.9529,-4.9563,-4.9628,-4.9582,-4.9652,-4.97,-4.9679,-4.9768,-4.9793,-4.9844,-4.9946,-4.9992,-4.9969,-5.0148,-5.0095,-5.0103,-5.0107,-5.0164,-5.0181,-5.0196,-4.9995,-4.9994,-4.9993,0,0,-4.9483,-4.9518,-4.9594,-4.963,-4.9683,-4.9698,-4.9717,-4.9766,-4.9781,-4.9872,-4.9858,-4.9916,-5.0022,-5.0059,-5.0091,-5.0221,-5.0205,-5.024,-5.0302,-5.036,-5.0374,-5.0387,-5.0431,-5.0447,-5.025,-5.0251,-5.0251,0,-4.953,-4.9626,-4.9635,-4.9706,-4.9743,-4.9729,-4.9806,-4.9841,-4.991,-4.9936,-4.991,-5.0043,-5.0077,-5.0187,-5.0218,-5.0246,-5.0267,-5.0232,-5.0371,-5.0384,-5.0396,-5.0439,-5.0455,-5.0254,-5.0254,-5.0253,-5.0253,0,-4.9681,-4.9749,-4.9804,-4.9872,-4.9916,-4.999,-5.0009,-5.0053,-5.0053,-5.0071,-5.0164,-5.0204,-5.0271,-5.0298,-5.0298,-5.0409,-5.0393,-5.0369,-5.032,-5.0417,-5.0457,-5.0473,-5.0259,-5.0258,-5.0257,-5.0256,0,0,-4.9817,-4.989,-4.991,-4.9941,-4.9999,-5.0052,-5.0127,-5.0192,-5.0229,-5.0279,-5.034,-5.0432,-5.0411,-5.0449,-5.0453,-5.0505,-5.0603,-5.0475,-5.0476,-5.0495,-5.0726,-5.0741,-5.076,-5.0595,-5.0598,-5.0601,-5.0721,0,-4.9931,-5.0061,-5.0072,-5.019,-5.0252,-5.0241,-5.0306,-5.0349,-5.037,-5.0426,-5.0449,-5.0513,-5.0482,-5.0504,-5.0555,-5.058,-5.0649,-5.0572,-5.0652,-5.0654,-5.0636,-5.0781,-5.0797,-5.0909,-5.0737,-5.074,-5.0742,0,-5.0081,-5.0136,-5.0259,-5.031,-5.0337,-5.0395,-5.0456,-5.0511,-5.0561,-5.0572,-5.0615,-5.0613,-5.0691,-5.0642,-5.0748,-5.0696,-5.073,-5.0748,-5.0753,-5.0757,-5.0701,-5.0788,-5.0945,-5.096,-5.0767,-5.0765,-5.0763,0,-5.0165,-5.027,-5.0357,-5.0384,-5.0446,-5.0487,-5.0515,-5.0562,-5.0601,-5.0656,-5.0681,-5.0745,-5.0779,-5.0828,-5.0844,-5.0807,-5.0949,-5.0902,-5.096,-5.096,-5.0987,-5.0984,-5.1149,-5.1015,-5.1014,-5.1014,-5.1014,0,-5.029,-5.0365,-5.0395,-5.0448,-5.0533,-5.0546,-5.063,-5.0656,-5.0698,-5.0757,-5.0753,-5.0808,-5.0826,-5.0885,-5.0899,-5.0984,-5.1,-5.1011,-5.1013,-5.101,-5.1008,-5.1029,-5.1021,-5.1018,-5.1017,-5.1017,-5.1016,0,-5.0396,-5.0419,-5.0513,-5.0566,-5.0581,-5.064,-5.0685,-5.0737,-5.0758,-5.0832,-5.0851,-5.0884,-5.0953,-5.0974,-5.1058,-5.1067,-5.1166,-5.1163,-5.1149,-5.1148,-5.1204,-5.1197,-5.1385,-5.141,-5.1262,-5.1263,-5.1264,0,-5.0472,-5.053,-5.0589,-5.0628,-5.0658,-5.0721,-5.0761,-5.0778,-5.082,-5.0882,-5.0927,-5.0995,-5.105,-5.1161,-5.1193,-5.1257,-5.1253,-5.1315,-5.1263,-5.1257,-5.1251,-5.1246,-5.1252,-5.1323,-5.1325,-5.1326,-5.1327,0,-5.0605,-5.0614,-5.0672,-5.0735,-5.0784,-5.0834,-5.0883,-5.0915,-5.0939,-5.0987,-5.1058,-5.1101,-5.1187,-5.1254,-5.132,-5.1349,-5.1342,-5.1344,-5.1361,-5.1356,-5.1344,-5.1349,-5.1172,-5.1339,-5.1338,-5.1337,-5.1336,-5.1336,-5.0696,-5.0747,-5.0797,-5.0862,-5.0901,-5.0947,-5.0998,-5.1027,-5.1086,-5.1156,-5.1164,-5.124,-5.129,-5.1378,-5.1411,-5.1471,-5.1453,-5.1477,-5.1483,-5.1488,-5.1491,-5.1338,-5.1483,-5.1483,-5.1483,-5.1483,-5.1482,0,-5.0826,-5.0858,-5.0919,-5.0987,-5.1039,-5.103,-5.1084,-5.1128,-5.1195,-5.1243,-5.1298,-5.1379,-5.1446,-5.1484,-5.1551,-5.1592,-5.159,-5.1608,-5.1604,-5.161,-5.1504,-5.1482,-5.1608,-5.1608,-5.1608,-5.1608,-5.1608,-5.1608,-5.0899,-5.0985,-5.1001,-5.1106,-5.1138,-5.1212,-5.1244,-5.1287,-5.1325,-5.1416,-5.1471,-5.1496,-5.1541,-5.1611,-5.1672,-5.1681,-5.1705,-5.1725,-5.1732,-5.1631,-5.1618,-5.1605,-5.1585,-5.1731,-5.1731,-5.1833,-5.1834,-5.1835]},{"header":{"parameterUnit":"m.s-1","parameterCategory":1,"la1":30.2991,"la2":30.254,"lo1":-89.0895,"lo2":-89.0444,"dy":0.0017,"dx":0.0017,"nx":28,"ny":28,"refTime":"2024-03-13T21:00:00:Z","depth":0,"parameterNumber":3,"parameterNumberName":"V-component_of_WINDS"},"data":[0,0,0,0,0,0,0,0,0,0,0,0,0,0,0,0,0,0,0,0,0,0,0,0,0,0,0,0,0,0,0,0,0,0,0,0,0,0,0,0,0,0,0,0,0,0,0,0,0,0,0,0,0,0,0,0,0,0,1.9624,1.9625,0,1.9691,1.9691,1.9692,1.9734,1.9735,1.9735,1.9735,1.98,1.9801,1.9803,0,0,0,0,0,0,0,0,0,0,0,0,0,1.9532,1.9533,1.9624,1.9625,1.9625,1.9691,1.9691,1.9692,1.9734,1.9735,1.9735,1.9735,1.98,1.9801,1.9803,0,0,0,0,0,0,0,0,0,0,0,0,0,1.9582,1.9533,1.9624,1.9654,1.9658,1.969,1.9692,1.9693,1.9734,1.9735,1.9735,1.9735,1.9799,1.9801,1.9803,1.981,0,0,1.981,1.9811,0,0,0,0,0,0,0,0,1.9579,1.9585,1.9649,1.9652,1.9656,1.9705,1.9683,1.9732,1.9734,1.9705,1.9735,1.9735,1.9768,1.9773,1.9784,1.9813,1.9816,1.981,1.9812,1.9813,1.9813,0,0,0,0,0,0,0,1.9576,1.9583,1.965,1.965,1.9654,1.9664,1.9672,1.9692,1.9733,1.9708,1.9711,1.9718,1.977,1.9782,1.9786,1.9816,1.981,1.9812,1.9814,1.9815,1.9857,1.9857,0,0,0,0,0,0,1.9568,1.958,1.9648,1.9652,1.9618,1.9666,1.9674,1.9689,1.9733,1.9741,1.9718,1.972,1.9778,1.9783,1.9788,1.9801,1.9813,1.9815,1.9816,1.9857,1.9857,1.9856,0,0,0,0,0,0,1.9565,1.9573,1.9645,1.9617,1.9627,1.9667,1.9683,1.969,1.9702,1.9741,1.9748,1.9723,1.9778,1.9785,1.9805,1.9804,1.9816,1.9818,1.9857,1.9857,1.9857,1.9824,0,0,0,0,0,0,1.9563,1.9572,1.9575,1.9617,1.9628,1.9661,1.9683,1.9691,1.9706,1.971,1.9748,1.9754,1.9779,1.9802,1.9807,1.9807,1.982,1.9858,1.9857,1.9857,1.9826,1.9823,1.9821,0,0,0,0,0,1.9559,1.9562,1.9575,1.9583,1.9633,1.9661,1.9667,1.9697,1.9706,1.9709,1.9735,1.9753,1.9803,1.9803,1.981,1.981,1.9858,1.9857,1.9857,1.9827,1.9823,1.9821,0,0,0,0,0,0,1.9517,1.9568,1.9583,1.9599,1.9626,1.9668,1.9673,1.9692,1.9715,1.9717,1.9752,1.976,1.9777,1.9796,1.9795,1.982,1.9833,1.9833,1.9807,1.9805,1.9802,1.9797,1.9821,0,0,0,0,0,1.951,1.9529,1.9572,1.9582,1.9595,1.9632,1.9645,1.9666,1.9694,1.9705,1.9732,1.9758,1.978,1.9793,1.9815,1.9829,1.9839,1.9833,1.983,1.9828,1.9828,1.9839,1.9837,1.9855,1.9855,1.9855,0,0,1.9495,1.9525,1.9534,1.9575,1.9598,1.9617,1.9641,1.9659,1.9674,1.9707,1.9729,1.9749,1.9781,1.9798,1.9807,1.9814,1.9826,1.9827,1.9825,1.9827,1.9838,1.9837,1.9835,1.9854,1.9855,1.9855,0,0,1.9477,1.9501,1.9514,1.9537,1.9573,1.9598,1.9601,1.9641,1.9657,1.9679,1.9705,1.9723,1.9759,1.9782,1.9798,1.9792,1.9811,1.9798,1.9785,1.9795,1.9794,1.9793,1.9792,1.9791,1.9799,1.9798,1.9798,0,1.9453,1.9484,1.9518,1.9536,1.9554,1.9587,1.9601,1.9621,1.9661,1.9673,1.968,1.9729,1.9752,1.9777,1.9776,1.9787,1.9792,1.9794,1.9791,1.9791,1.979,1.979,1.979,1.9797,1.9797,1.9797,1.9797,0,1.9454,1.9475,1.9481,1.9522,1.954,1.9555,1.9591,1.9606,1.9626,1.965,1.9673,1.9703,1.9733,1.974,1.9759,1.9768,1.9772,1.9785,1.9798,1.9786,1.9787,1.9787,1.9795,1.9795,1.9796,1.9796,0,0,1.941,1.9471,1.9473,1.9493,1.9536,1.9553,1.957,1.9602,1.9614,1.9641,1.9658,1.9689,1.9703,1.9721,1.9743,1.9752,1.9748,1.9764,1.9766,1.9761,1.9762,1.9752,1.9751,1.9761,1.9761,1.9761,1.9759,0,1.94,1.9435,1.9467,1.949,1.9511,1.9544,1.956,1.9588,1.9612,1.9633,1.9659,1.9681,1.9697,1.9709,1.9719,1.9746,1.9748,1.9746,1.9776,1.9777,1.9768,1.9751,1.974,1.9737,1.976,1.976,1.976,0,1.9392,1.942,1.9446,1.949,1.95,1.9513,1.9546,1.9566,1.9599,1.9615,1.9638,1.9661,1.9682,1.9694,1.9724,1.9722,1.9736,1.9751,1.9752,1.9756,1.9768,1.9755,1.9737,1.9737,1.976,1.976,1.976,0,1.9359,1.9403,1.9425,1.9441,1.9492,1.9501,1.9523,1.9557,1.9574,1.9603,1.9615,1.9644,1.966,1.9683,1.9714,1.9719,1.9741,1.9755,1.9756,1.9755,1.9759,1.9758,1.9743,1.9767,1.9767,1.9767,1.9767,0,1.9344,1.9359,1.9411,1.9425,1.9443,1.948,1.9497,1.9521,1.9552,1.9571,1.9601,1.9618,1.9659,1.968,1.9705,1.9727,1.9734,1.9748,1.9755,1.9746,1.9744,1.9755,1.9757,1.9767,1.9767,1.9767,1.9767,0,1.931,1.9345,1.9372,1.942,1.9432,1.9443,1.9484,1.9498,1.9525,1.9549,1.9557,1.9598,1.9626,1.966,1.9697,1.9714,1.9734,1.9743,1.9723,1.9727,1.9727,1.9727,1.9719,1.9721,1.9743,1.9742,1.9742,0,1.9298,1.9311,1.9361,1.9377,1.9398,1.9422,1.9442,1.9479,1.9498,1.9539,1.9548,1.9579,1.9606,1.9648,1.9681,1.9711,1.9722,1.9717,1.9726,1.9718,1.9723,1.9722,1.9725,1.9715,1.9714,1.9714,1.9714,0,1.9274,1.9292,1.9319,1.9353,1.9376,1.9404,1.9433,1.9444,1.9487,1.9507,1.9537,1.9558,1.9598,1.9629,1.9663,1.9685,1.9707,1.9711,1.9713,1.9704,1.9693,1.97,1.9718,1.9711,1.9711,1.9711,1.9711,1.9711,1.9252,1.9266,1.9304,1.9334,1.936,1.9388,1.9405,1.9435,1.9461,1.9498,1.9519,1.9548,1.9583,1.9633,1.9654,1.9678,1.9686,1.9688,1.9689,1.9689,1.9687,1.9689,1.9684,1.9684,1.9685,1.9685,1.9685,0,1.9231,1.9258,1.9285,1.9327,1.935,1.9371,1.9405,1.9423,1.9449,1.9481,1.9508,1.9543,1.9574,1.961,1.9643,1.9655,1.9666,1.9662,1.9662,1.9667,1.9678,1.9673,1.9653,1.9653,1.9653,1.9653,1.9653,1.9653,1.9223,1.9248,1.9271,1.931,1.9337,1.9368,1.9386,1.9412,1.9438,1.9477,1.9503,1.9527,1.9561,1.9598,1.9627,1.9637,1.9648,1.9641,1.9654,1.9663,1.9666,1.9669,1.9665,1.9643,1.9643,1.9642,1.9642,1.9642]}]]